Theta_e
354 351 347 341 325 322 314 317 325 323 322 326 325 326 326 330 325 312 333 340 343 342 353 358 363 362 362 363 360 362 361 359 361 360 359 360 359 356 357 357 358 360 360 360 360 361 362 362 360
350 348 344 336 320 310 312 323 323 326 327 326 326 332 330 326 334 331 337 343 343 346 354 357 363 363 363 364 362 362 360 360 360 361 359 360 359 356 357 357 357 357 360 357 359 360 362 360 358
348 346 333 326 317 311 313 324 326 328 329 328 331 335 331 327 333 332 343 343 348 351 353 356 362 364 363 363 363 362 361 360 360 360 360 360 359 356 355 356 359 358 357 359 359 360 359 358 358
340 341 336 321 314 318 321 327 330 329 333 334 332 326 334 338 332 342 346 348 349 350 352 360 361 360 362 363 363 362 360 361 360 359 359 359 359 359 355 357 359 358 359 359 359 357 357 358 357
344 333 321 319 319 323 327 329 332 329 332 331 332 327 327 337 345 346 346 348 347 348 353 356 364 363 363 362 362 362 362 361 360 360 360 359 359 358 359 357 358 358 357 356 356 356 356 356 357
330 331 318 313 318 322 328 335 331 331 332 330 329 328 329 342 342 344 347 347 349 352 355 358 363 362 364 364 363 362 362 362 360 361 360 360 360 359 358 358 358 358 358 357 356 355 355 357 358
327 322 319 318 318 320 323 332 329 330 330 328 333 326 332 337 342 346 348 349 352 354 354 356 357 360 362 362 362 362 362 362 362 360 359 360 359 359 359 359 359 358 357 357 356 356 357 357 358
331 325 317 320 319 318 326 331 334 332 329 337 337 325 326 335 345 346 346 347 351 351 353 353 353 353 352 356 363 362 362 363 362 362 361 360 359 358 359 361 361 358 357 357 356 357 356 358 361
335 319 311 318 320 322 330 326 334 339 333 336 338 334 336 342 345 341 342 346 347 350 349 349 349 348 350 352 358 362 363 363 362 360 361 359 353 353 353 356 359 358 358 358 357 357 358 360 358
324 314 317 326 328 326 329 327 329 332 331 332 333 336 339 342 340 337 339 339 343 346 348 347 347 349 351 356 353 354 356 355 354 354 349 347 350 352 354 356 359 358 358 359 356 357 347 348 345
320 316 325 329 330 330 327 326 334 332 327 330 329 333 337 339 338 337 338 340 340 346 348 346 347 349 350 352 351 352 352 352 351 350 342 345 349 349 351 351 351 349 355 346 341 344 343 343 346
311 319 328 329 332 328 327 332 330 332 333 338 336 336 336 336 336 337 337 338 341 344 346 344 347 348 346 350 349 350 351 351 350 346 342 346 340 343 344 346 347 347 346 340 338 341 344 344 344
312 316 326 331 331 330 334 329 328 333 338 341 338 337 335 335 335 339 339 340 342 341 344 343 345 346 345 347 348 348 348 349 349 347 346 348 340 341 344 345 344 344 344 342 341 342 343 344 346
316 316 316 329 328 330 329 330 331 333 340 338 336 334 335 334 334 337 338 338 341 342 342 342 344 346 346 347 347 347 347 350 348 348 348 346 344 343 343 344 343 343 342 341 343 342 342 344 346
316 311 313 325 328 326 333 323 324 335 338 337 336 335 336 336 335 336 337 338 340 340 342 341 344 346 345 346 348 347 347 350 347 346 344 348 345 344 338 343 343 342 338 341 343 341 342 342 343
304 301 295 317 329 331 329 316 329 335 335 333 334 335 335 336 334 337 337 339 340 339 340 341 347 346 344 345 347 347 347 347 347 346 346 348 349 345 342 342 342 343 339 340 342 339 338 337 336
299 296 297 308 328 328 325 318 328 335 333 331 332 333 333 334 333 335 336 337 340 339 341 342 343 344 344 345 346 345 348 348 348 349 347 345 347 350 346 344 342 344 341 339 342 341 338 336 335
295 295 293 296 321 326 321 320 326 331 333 330 331 331 332 333 332 335 334 338 340 342 342 342 343 343 345 344 345 346 346 348 349 347 346 341 349 353 349 348 344 345 341 341 341 337 336 337 335
300 297 296 301 304 309 320 319 324 327 330 329 330 329 331 332 331 334 334 339 341 341 341 342 342 341 344 340 341 341 341 345 346 347 349 351 350 351 349 347 346 347 343 343 342 339 335 338 335
300 298 297 301 303 299 310 318 322 326 327 330 329 330 331 331 330 331 332 339 340 340 341 343 343 341 344 341 340 344 341 344 344 346 348 352 352 351 350 348 346 342 341 342 342 339 337 338 335
297 295 297 297 302 321 318 317 319 323 328 331 328 332 333 332 328 330 331 337 339 339 339 342 342 341 343 342 341 343 342 344 342 345 346 350 354 351 350 349 344 341 343 339 340 342 338 332 336
293 302 302 300 294 290 307 298 314 321 322 326 329 327 332 333 331 330 331 336 338 339 340 342 341 340 342 342 340 340 340 337 341 344 346 350 353 351 348 350 349 346 345 343 343 344 338 336 333
300 304 300 298 292 290 292 291 299 319 317 320 326 329 331 334 333 330 331 335 338 339 339 341 341 340 341 342 341 340 339 339 342 343 344 347 350 351 351 349 348 347 347 344 346 345 343 341 337
305 299 296 292 290 285 289 289 291 311 317 320 324 326 332 332 333 333 333 334 337 339 340 341 341 340 341 341 339 339 339 339 340 341 342 344 347 348 349 349 349 348 345 346 346 346 343 344 344
297 291 286 285 284 284 287 289 291 305 317 322 322 324 329 334 332 334 332 332 334 337 338 341 341 340 342 341 339 338 339 338 340 340 343 343 345 347 348 348 348 348 348 347 347 346 345 345 344
292 291 287 282 282 285 289 288 295 311 314 318 320 325 328 330 333 334 334 333 333 336 338 341 340 340 342 342 340 338 337 339 340 341 341 345 347 348 350 348 350 350 349 348 348 348 348 348 346
292 288 292 287 285 286 288 292 301 313 314 317 318 321 324 327 331 334 336 334 333 335 338 340 340 340 342 342 342 339 338 337 339 343 344 344 345 349 349 348 349 350 348 346 348 347 346 348 347
292 293 288 287 283 282 287 289 296 308 311 316 320 322 323 326 329 332 336 336 334 335 337 341 342 340 341 343 343 343 342 341 339 341 345 344 345 344 346 349 349 349 349 346 347 346 346 345 346
289 287 286 287 287 284 284 292 307 311 312 314 317 322 322 326 328 331 334 337 336 335 337 337 342 341 340 341 342 342 342 342 340 340 342 345 345 343 344 346 350 349 348 349 347 346 346 346 345
293 287 285 283 283 285 286 292 309 312 313 315 315 317 321 325 328 334 336 337 337 335 336 336 338 342 341 341 340 339 339 340 343 341 340 341 345 344 344 346 346 350 350 348 347 346 349 346 345
Wind_Speed
6 4 1 1 3 1 1 5 2 5 5 9 17 6 6 5 2 4 5 8 13 10 6 6 10 11 12 13 12 14 14 12 11 12 12 12 13 11 10 10 9 10 9 9 11 11 10 11 11
5 4 2 1 2 2 4 2 2 2 9 17 12 12 5 4 5 8 7 11 14 9 5 5 10 12 14 14 14 14 13 11 10 12 11 11 11 11 10 11 10 10 10 9 10 10 11 11 11
7 6 1 1 1 1 4 2 4 9 17 14 5 8 4 3 10 13 12 15 12 7 5 7 12 12 14 15 14 13 13 11 11 12 11 11 11 11 10 11 11 11 11 10 10 11 10 11 10
5 2 2 1 2 3 5 9 13 15 6 9 8 8 5 4 14 8 15 15 12 7 6 10 13 13 13 13 13 13 12 12 11 12 10 11 11 10 12 10 10 12 11 10 11 10 9 9 8
1 1 2 2 1 2 9 11 9 10 4 6 3 7 11 3 16 17 15 13 12 7 5 7 12 13 13 13 12 13 13 12 12 11 11 12 12 10 12 11 11 11 10 10 9 8 9 8 7
1 1 1 2 5 7 8 8 8 3 7 9 10 11 4 15 16 14 14 12 11 9 5 6 11 12 12 12 13 13 13 13 12 11 11 11 12 11 10 10 11 11 10 9 8 7 9 9 9
1 1 2 2 3 5 4 9 11 6 9 4 7 6 10 14 13 14 12 11 10 8 6 5 5 9 12 12 13 13 12 11 12 11 9 10 10 11 12 10 11 11 10 10 9 9 10 8 10
2 1 3 3 2 3 2 5 12 4 5 12 7 5 12 15 16 13 11 10 8 5 6 5 4 5 4 4 13 13 12 12 11 10 10 10 9 10 9 8 10 10 10 10 9 10 8 9 9
3 2 3 3 5 7 6 1 6 11 12 4 2 9 17 19 17 14 12 8 7 6 5 5 5 5 4 3 7 10 11 11 11 10 9 6 2 4 6 6 10 11 11 10 10 9 8 9 8
4 3 5 2 5 10 12 5 5 5 4 8 13 21 19 19 17 15 14 13 9 10 6 5 6 5 5 4 4 3 4 3 3 3 5 2 2 2 4 7 9 9 10 11 10 11 8 6 3
6 5 5 2 7 17 15 11 4 2 4 4 21 24 22 20 16 15 14 16 13 10 8 6 6 5 5 4 3 2 2 2 3 5 4 3 3 2 2 2 2 3 8 4 6 4 3 4 2
3 6 5 6 9 9 11 13 10 9 3 3 16 18 22 22 17 15 12 11 11 10 8 7 6 5 4 3 3 3 3 2 3 3 5 3 2 3 1 2 1 3 3 5 4 2 1 2 1
4 6 8 8 11 6 9 6 5 6 4 2 18 18 18 17 16 14 14 10 10 8 7 7 6 5 4 4 3 3 3 3 3 3 4 3 4 3 3 3 2 1 2 2 3 2 1 0 2
4 6 7 12 10 7 8 7 6 7 7 10 17 19 17 16 17 13 12 11 11 9 8 8 8 6 6 5 5 4 3 3 3 3 3 5 4 4 3 4 2 1 1 0 2 0 1 1 2
8 7 4 8 10 7 9 2 6 11 11 14 18 16 16 16 16 16 14 14 15 11 9 9 8 6 7 7 6 4 4 4 4 4 4 5 5 5 5 4 3 2 0 3 3 2 2 3 1
2 4 3 3 10 8 6 4 11 13 16 14 17 18 17 17 20 16 15 14 14 11 12 9 9 9 7 6 5 4 4 4 4 3 3 5 5 6 4 2 3 4 3 3 2 2 3 2 2
7 1 1 2 9 5 9 4 6 7 15 15 15 19 18 16 19 17 15 15 16 13 12 11 8 9 7 6 5 6 6 4 4 4 3 5 5 4 5 4 3 3 3 1 1 0 2 0 2
1 2 2 2 7 3 8 8 4 6 8 17 16 16 18 19 21 21 17 17 16 14 13 14 9 8 7 4 4 3 3 2 3 4 4 5 3 3 4 4 5 4 3 3 2 3 2 1 3
3 3 2 4 7 6 15 9 11 11 4 15 15 18 17 21 15 19 18 18 16 14 14 14 12 8 5 2 3 2 3 2 1 3 4 5 3 5 6 3 3 4 4 4 4 1 2 1 1
2 1 5 7 4 7 3 4 6 11 9 15 18 18 19 18 13 18 17 18 17 19 17 14 15 12 8 4 3 3 3 1 0 1 3 5 4 3 5 5 4 4 3 4 4 3 1 0 1
3 4 4 6 2 6 8 3 2 2 3 3 5 14 16 14 16 19 19 19 18 18 17 15 15 14 8 7 4 3 4 3 2 1 3 3 5 4 5 6 5 5 3 4 3 3 3 2 1
5 7 7 4 3 2 3 2 6 8 10 11 10 13 13 14 13 18 20 20 20 20 18 16 15 14 10 9 6 6 4 4 3 4 3 3 4 5 5 5 5 5 3 4 3 3 2 2 1
10 5 8 5 3 3 3 5 4 8 11 18 20 13 13 13 13 18 22 21 20 18 17 15 14 13 8 11 9 7 4 3 2 2 5 3 3 4 5 5 5 5 4 3 4 4 3 2 2
7 4 6 5 4 3 4 6 5 7 21 17 16 16 16 14 10 14 18 18 18 16 15 15 15 14 10 11 9 11 9 6 3 2 4 3 3 3 4 5 5 5 4 5 4 4 4 3 2
5 7 3 3 3 6 5 3 3 10 11 16 19 20 20 17 14 14 17 19 18 19 18 15 16 15 12 12 11 10 10 9 7 6 5 5 3 3 6 5 5 4 5 6 5 4 4 3 2
3 7 7 6 5 4 6 5 1 6 8 10 13 14 13 16 16 18 15 20 20 21 20 19 17 15 14 13 11 9 8 5 5 6 4 5 6 6 6 6 5 6 5 5 5 3 3 3 3
4 5 0 7 4 4 2 3 6 23 15 14 14 12 17 20 20 22 19 18 19 20 21 20 19 16 15 16 12 10 8 7 8 7 5 4 5 5 6 7 6 6 6 6 5 4 4 4 4
8 2 4 4 5 3 4 5 3 18 21 21 19 15 11 15 19 18 17 17 18 18 18 17 18 20 17 16 13 12 12 10 8 6 6 6 6 5 6 7 7 6 6 6 6 3 3 4 4
8 7 5 3 4 6 3 2 4 10 11 15 20 24 7 14 7 9 10 13 14 15 17 18 16 17 15 15 14 12 10 8 8 7 7 7 6 6 6 7 7 7 7 6 6 6 5 5 5
16 5 4 4 5 2 3 1 7 8 10 14 20 22 22 19 12 11 9 8 7 1 11 15 14 16 17 17 14 13 11 9 9 10 9 7 7 6 7 7 6 7 8 7 7 7 5 6 6
Wind_Direction
197 153 188 205 261 211 255 261 239 121 112 152 156 164 160 60 158 189 139 136 124 138 157 154 142 140 143 137 129 123 124 128 130 128 122 127 121 117 117 120 115 114 116 106 100 93 93 94 97
129 164 256 306 326 34 282 243 267 138 142 143 177 120 52 88 80 123 110 137 130 140 150 146 139 131 137 142 137 133 131 134 133 127 124 119 121 121 125 118 119 126 121 119 111 106 93 93 101
150 228 270 343 42 265 269 236 190 121 120 142 113 50 67 67 105 141 127 132 128 130 139 153 137 131 139 145 144 138 137 137 132 126 123 125 125 125 122 120 117 125 117 115 108 100 100 105 104
170 217 268 202 224 235 254 330 136 125 67 60 101 77 92 129 140 132 132 130 122 128 135 147 143 143 146 146 140 139 141 139 135 130 129 129 127 131 121 120 116 120 116 104 109 112 113 110 104
37 278 263 281 3 39 288 274 126 133 104 118 143 85 114 118 111 126 129 130 128 125 140 137 151 154 156 154 154 151 142 136 138 141 135 129 124 119 120 123 117 111 111 110 108 114 108 93 74
253 263 280 312 44 64 348 344 353 281 100 109 102 105 70 133 125 135 129 131 134 132 134 156 152 152 148 141 138 142 144 145 140 144 140 123 122 129 126 129 120 115 111 106 105 102 101 88 75
243 294 308 291 99 76 311 321 304 130 121 106 128 92 127 132 133 130 128 128 130 134 124 118 135 155 147 148 142 145 147 151 148 136 133 133 138 138 135 128 119 115 109 107 103 99 97 86 85
225 159 290 257 167 116 152 336 321 142 72 122 142 155 155 148 136 126 122 123 122 118 112 123 105 103 106 134 146 146 148 147 146 142 145 142 148 148 141 128 128 119 114 109 109 108 116 104 89
238 283 281 267 150 122 140 311 342 313 150 124 342 136 139 136 128 124 122 121 125 130 129 134 130 132 149 153 153 144 154 150 152 150 159 130 115 126 130 154 139 131 119 107 110 120 110 101 95
191 177 229 282 106 149 151 122 335 356 171 36 94 118 135 133 137 141 145 152 160 160 162 154 146 161 175 158 107 144 166 129 111 106 102 141 130 141 168 160 144 128 115 94 75 85 62 69 49
206 210 188 125 119 143 144 144 139 220 263 86 151 145 144 146 149 152 162 168 170 166 168 168 164 176 178 138 141 166 112 128 138 165 153 176 107 53 45 357 85 85 102 78 71 75 89 74 44
259 224 178 143 154 162 163 134 162 194 118 164 171 157 147 156 159 162 159 166 163 171 182 169 170 177 184 143 150 179 150 177 192 178 150 143 121 129 135 135 174 121 122 112 99 98 104 82 252
238 269 182 173 162 156 144 157 170 134 206 170 160 163 159 159 161 164 170 168 163 169 181 171 169 177 179 170 156 178 152 195 217 193 177 163 151 152 156 152 179 135 107 122 117 106 155 183 311
230 234 253 173 170 155 159 151 183 163 177 153 165 170 173 170 168 166 167 166 176 174 180 164 182 175 176 180 180 178 171 213 218 218 209 196 157 154 196 165 192 232 145 134 89 132 252 58 1
252 268 309 149 154 162 140 97 211 154 170 181 177 172 171 179 171 175 177 175 176 183 174 171 177 173 186 185 193 181 185 191 215 218 202 192 174 176 165 177 182 171 146 85 72 51 34 28 39
300 52 35 187 156 168 166 233 203 161 164 169 175 173 177 180 177 180 179 181 181 175 177 166 183 184 190 196 200 195 185 176 201 201 207 200 202 172 156 192 182 173 149 77 79 78 43 339 34
3 152 56 118 213 159 186 248 217 165 149 169 181 176 180 177 181 184 180 179 182 181 175 164 173 190 184 203 200 189 184 173 178 169 205 219 226 185 156 173 191 188 120 117 6 54 140 134 308
180 44 20 72 170 197 201 250 271 154 181 178 184 189 183 185 185 184 176 179 182 180 180 164 169 183 175 162 108 101 125 143 175 177 194 202 220 215 171 156 165 151 140 194 176 207 204 151 186
141 177 282 224 202 199 209 215 217 161 182 181 184 199 194 194 189 179 172 175 177 181 177 169 159 179 161 152 107 88 166 139 193 205 190 192 184 168 154 147 145 158 172 204 175 153 151 281 165
263 339 294 291 274 168 315 276 206 173 194 187 192 197 199 193 183 181 171 171 175 181 180 172 175 174 178 154 144 142 140 174 114 217 215 197 167 176 148 152 156 169 147 159 172 148 143 198 179
260 179 231 221 9 27 115 43 175 163 281 236 227 216 212 205 177 182 179 179 174 180 177 175 177 178 181 159 124 88 76 62 62 333 266 225 185 184 165 165 158 166 159 158 173 146 139 176 238
263 197 234 245 72 249 147 239 244 213 236 260 233 220 219 208 189 186 179 180 182 187 181 180 177 180 182 161 152 145 156 155 194 192 213 224 202 188 193 172 166 161 165 163 161 154 156 130 197
235 212 192 201 148 79 304 86 259 175 233 240 235 220 224 223 203 193 187 182 188 183 182 182 180 181 173 174 165 162 151 168 183 195 189 213 220 201 204 184 170 171 170 176 175 163 178 165 139
236 128 52 62 105 58 252 120 289 187 222 238 236 223 218 211 207 203 196 182 184 186 188 178 180 189 175 175 167 174 174 174 181 201 191 204 216 213 218 199 178 182 171 174 191 181 178 169 145
91 67 352 26 49 194 242 73 250 269 284 245 228 208 209 207 200 203 197 188 183 185 184 184 182 187 186 182 178 179 186 172 189 206 196 174 192 210 220 202 184 193 199 189 174 177 188 190 167
325 144 151 178 170 188 235 204 125 336 5 344 312 244 224 216 206 208 197 191 187 187 185 183 184 188 187 189 188 182 178 182 181 192 196 196 198 213 187 201 203 206 204 204 187 181 189 203 204
309 51 231 96 17 72 259 305 284 351 355 357 341 314 216 200 210 202 191 195 187 187 189 186 183 190 189 193 189 184 176 176 187 193 197 201 209 219 196 186 199 205 203 206 199 196 201 200 209
79 334 62 10 128 154 294 77 344 350 345 344 357 329 262 210 201 206 196 192 188 189 188 186 187 185 188 191 195 195 191 185 187 176 192 204 218 218 193 188 195 196 205 200 196 215 234 217 227
9 13 5 108 99 151 162 17 53 1 349 7 4 5 314 196 195 204 217 207 189 183 185 185 185 188 190 195 190 195 199 181 168 186 201 207 206 198 214 198 199 197 199 197 199 209 217 225 241
77 60 74 88 325 19 114 182 358 336 355 41 27 20 23 36 37 53 79 66 47 299 198 188 185 191 194 192 191 198 194 190 190 188 194 196 214 201 207 212 206 204 203 192 197 210 213 215 229